Location: North Evanston
(42.0634°N, 87.6976°W)
Time: 11:41:21
(UTC+00:00)

Injun/Solrad 3 - Visible Passes

Search period start: 15 May 2026 00:00
Search period end: 25 May 2026 00:00
Orbit: 868 x 988 km, 66.8° (Epoch: 14 May)

Date Brightness Start Highest point End Pass type
(mag) Time Alt. Az. Time Alt. Az. Time Alt. Az.
15 May 10.5 03:49:30 10° N 03:51:56 12° NNE 03:54:23 10° NE visible
15 May 8.9 05:34:05 10° NNW 05:40:13 44° NE 05:42:23 33° E visible
15 May 8.7 07:20:50 10° NW 07:25:58 35° W 07:25:58 35° W visible
16 May 10.3 03:59:45 10° N 04:03:34 16° NE 04:07:23 10° ENE visible
16 May 8.3 05:45:00 10° NNW 05:51:24 63° ENE 05:52:38 53° ESE visible
16 May 9.3 07:32:26 10° NW 07:36:13 23° W 07:36:13 23° W visible
17 May 9.9 04:10:19 10° N 04:15:06 21° NE 04:19:22 12° E visible
17 May 7.8 05:56:00 10° NNW 06:02:29 90° ENE 06:02:58 78° SSE visible
17 May 9.8 07:44:35 10° WNW 07:46:33 14° W 07:46:33 14° W visible
18 May 9.5 04:21:01 10° NNW 04:26:30 29° NE 04:29:45 19° E visible
18 May 8.0 06:07:06 10° NW 06:13:21 62° WSW 06:13:21 62° WSW visible
19 May 10.4 02:47:34 10° N 02:49:23 11° NNE 02:51:12 10° NE visible
19 May 9.0 04:31:49 10° NNW 04:37:49 39° NE 04:40:11 30° E visible
19 May 8.6 06:18:22 10° NW 06:23:48 41° W 06:23:48 41° W visible
20 May 10.2 02:57:37 10° N 03:01:03 15° NNE 03:04:29 10° ENE visible
20 May 8.4 04:42:42 10° NNW 04:49:02 56° NE 04:50:41 44° ESE visible
20 May 9.2 06:29:52 10° NW 06:34:18 27° W 06:34:18 27° W visible
21 May 9.9 03:08:06 10° N 03:12:36 19° NE 03:17:06 10° E visible
21 May 7.9 04:53:39 10° NNW 05:00:09 80° ENE 05:01:13 63° SE visible
21 May 9.7 06:41:46 10° WNW 06:44:50 17° W 06:44:50 17° W visible
22 May 9.5 03:18:46 10° NNW 03:24:03 26° NE 03:28:11 14° E visible
22 May 7.9 05:04:44 10° NW 05:11:09 71° WSW 05:11:48 66° SSW visible
22 May 10.2 06:55:09 10° W 06:55:25 10° W 06:55:25 10° W visible
23 May 10.4 01:45:58 10° NNE 01:46:48 10° NNE 01:47:39 10° NNE visible
23 May 9.1 03:29:32 10° NNW 03:35:24 35° NE 03:38:48 22° E visible
23 May 8.4 05:15:56 10° NW 05:22:05 48° WSW 05:22:25 47° WSW visible
24 May 10.2 01:55:30 10° N 01:58:30 13° NNE 02:01:31 10° ENE visible
24 May 8.5 03:40:24 10° NNW 03:46:38 50° NE 03:49:27 31° ESE visible
24 May 9.0 05:27:21 10° NW 05:32:55 32° WSW 05:33:04 32° WSW visible
